Погода в Павловской Слобода

Россия / Московская область     55°48′48″N   37°04′47″E
темп.,
°C
ветер,
м/с
пор.,
м/с
влажн.,
%
обл.,
%
осадки,
мм/ч
давл.,
гПа
погр.,
м
11 апреля, вс
вс1100:00+3ююз311720 0.0 1025222
03:00+2ююз311775 0.0 1026208
06:00+1юз27835 0.0 1027141
09:00+7юз24632 0.0 1028299
12:00+12ююз35490 0.0 1029831
15:00+14юз34445 0.0 10291419
18:00+13ю22575 0.0 102943
21:00+9ю22682 0.0 103110
12 апреля, пн
пн1200:00+7ююв22750 0.0 103219
03:00+6юв22760 0.0 103321
06:00+5вюв258199 0.0 103475
09:00+9вюв41063100 0.0 1033460
12:00+12вюв5947100 0.0 1032887
15:00+14вюв5944100 0.0 10301044
18:00+12вюв496299 0.0 1029668
21:00+10вюв41276100 0.0 1029447
13 апреля, вт
вт1300:00+8вюв41091100 0.0 1028297
03:00+6вюв399697 0.0 1027212
06:00+6юв399568 0.0 1026183
09:00+12ююв41068100 0.0 1025346
12:00+16ю4850100 0.0 1024724
15:00+18ю4743100 0.0 10231262
18:00+16ююв365150 0.0 1023145
21:00+11ююв366595 0.0 102399
14 апреля, ср
ср1400:00+10юв387496 0.0 1023137
03:00+9ююв3117319 0.0 1022235
06:00+8ююв287791 0.0 1022149
09:00+13ююв3660100 0.0 1021278
12:00+18ююв474358 0.0 1020922
15:00+20ю573579 0.0 10182171
18:00+17ююв2546100 0.0 1018142
21:00+12ююв3759100 0.0 1018119
15 апреля, чт
чт1500:00+10юв2264100 0.0 101819
03:00+9ююв2269100 0.0 101715
06:00+8ююв1273100 0.0 101711
09:00+11ю1262100 0.0 1017182
12:00+15зюз2354100 0.0 1016631
15:00+17юз134585 0.2 10151837
18:00+15ююв135696 0.3 1015138
21:00+11ссв367799 0.3 1016163